GW3217 Weather Reports


Display with metric or nautical units.
time (UTC)temp
F
wind
direction
speed
MPH
gust
MPH
rain 1hr
in
rain 24hr
in
rain mn
in
humidity
%
barometer
mb
20260508075118 42 247 0.0 0.0 0.00 0.00 0.00 87 1013.0
20260508074616 42 250 0.0 0.0 0.00 0.00 0.00 88 1013.2
20260508074113 42 247 0.0 0.0 0.00 0.00 0.00 87 1013.1
20260508073610 43 248 0.0 0.0 0.00 0.00 0.00 86 1013.2
20260508073108 43 247 0.0 0.0 0.00 0.00 0.00 85 1013.2
20260508072602 43 257 0.0 0.0 0.00 0.00 0.00 85 1013.0
20260508072100 43 252 0.0 0.0 0.00 0.00 0.00 83 1012.9
20260508071558 43 240 0.0 0.0 0.00 0.00 0.00 83 1013.0
20260508071056 43 206 0.0 0.0 0.00 0.00 0.00 82 1012.9
20260508070553 43 187 0.0 0.0 0.00 0.00 0.00 81 1013.1
20260508070051 43 234 0.0 0.0 0.00 0.00 0.00 79 1013.0
20260508065548 43 248 0.0 0.0 0.00 0.00 0.00 78 1013.4
20260508065046 44 249 1.0 2.0 0.00 0.00 0.00 77 1013.0
20260508064543 44 242 0.0 1.0 0.00 0.00 0.00 77 1013.1
20260508064041 44 261 1.0 2.0 0.00 0.00 0.00 76 1013.1
20260508063538 44 262 4.0 4.0 0.00 0.00 0.00 74 1013.1
20260508063037 44 230 1.0 2.0 0.00 0.00 0.00 73 1013.1
20260508062534 45 250 0.0 0.0 0.00 0.00 0.00 73 1013.2
20260508062030 44 248 4.0 4.0 0.00 0.00 0.00 71 1013.0
20260508061528 45 239 1.0 2.0 0.00 0.00 0.00 72 1012.9
20260508061025 45 247 2.0 3.0 0.00 0.00 0.00 70 1012.9
20260508060521 44 238 2.0 2.0 0.00 0.00 0.00 71 1012.9
20260508060019 44 243 0.0 0.0 0.00 0.00 0.00 76 1012.6
20260508055515 44 216 0.0 0.0 0.00 0.00 0.00 73 1012.5
20260508055012 44 258 0.0 0.0 0.00 0.00 0.00 73 1012.3
20260508054508 45 209 1.0 1.0 0.00 0.00 0.00 73 1012.2
20260508054005 44 244 1.0 1.0 0.00 0.00 0.00 74 1012.2
20260508053502 45 223 0.0 0.0 0.00 0.00 0.00 75 1012.0
20260508053000 46 239 1.0 1.0 0.00 0.00 0.00 71 1012.0
20260508052457 46 246 2.0 2.0 0.00 0.00 0.00 60 1012.3
20260508051954 46 205 0.0 0.0 0.00 0.00 0.00 59 1012.3
20260508051449 46 233 0.0 0.0 0.00 0.00 0.00 57 1012.3
20260508050945 46 195 0.0 0.0 0.00 0.00 0.00 57 1012.0
20260508050442 46 215 0.0 0.0 0.00 0.00 0.00 57 1012.2
20260508045939 45 352 1.0 2.0 0.00 0.00 0.00 55 1012.1
20260508045436 45 211 0.0 0.0 0.00 0.00 0.00 58 1012.0
20260508044933 45 230 0.0 0.0 0.00 0.00 0.00 57 1012.1
20260508044431 46 219 0.0 0.0 0.00 0.00 0.00 56 1011.9
20260508043925 46 230 0.0 0.0 0.00 0.00 0.00 54 1011.8
20260508043423 46 244 0.0 0.0 0.00 0.00 0.00 54 1011.6
20260508042919 46 359 1.0 1.0 0.00 0.00 0.00 53 1011.6
20260508042418 46 328 2.0 3.0 0.00 0.00 0.00 53 1011.4
20260508041914 46 299 0.0 0.0 0.00 0.00 0.00 54 1011.8
20260508041410 46 209 0.0 0.0 0.00 0.00 0.00 55 1011.9
20260508040907 46 156 0.0 0.0 0.00 0.00 0.00 56 1011.7
20260508040404 46 191 0.0 0.0 0.00 0.00 0.00 56 1012.0
20260508035902 46 154 1.0 1.0 0.00 0.12 0.12 55 1011.8
20260508035354 46 133 0.0 0.0 0.00 0.12 0.12 56 1011.8
20260508034850 46 204 0.0 1.0 0.00 0.12 0.12 57 1012.2
20260508034348 46 314 0.0 1.0 0.00 0.12 0.12 58 1011.9
20260508033845 46 200 0.0 0.0 0.00 0.12 0.12 60 1012.2
20260508033343 46 314 0.0 0.0 0.00 0.12 0.12 61 1012.2
20260508032840 46 166 0.0 0.0 0.00 0.12 0.12 61 1012.0
20260508032337 45 221 0.0 0.0 0.00 0.12 0.12 61 1012.0
20260508031834 45 261 0.0 0.0 0.00 0.12 0.12 61 1011.8
20260508031331 46 222 0.0 0.0 0.00 0.12 0.12 62 1012.2
20260508030827 46 126 0.0 0.0 0.00 0.12 0.12 62 1012.0
20260508030324 47 196 0.0 0.0 0.00 0.12 0.12 59 1012.1
20260508025820 46 194 0.0 0.0 0.00 0.12 0.12 58 1011.8
20260508025317 47 40 0.0 0.0 0.00 0.12 0.12 60 1012.0
20260508024814 47 195 0.0 0.0 0.00 0.12 0.12 58 1012.1
20260508024310 47 19 0.0 0.0 0.00 0.12 0.12 60 1012.1
20260508023808 47 185 0.0 0.0 0.00 0.12 0.12 59 1012.2
20260508023304 47 195 0.0 0.0 0.00 0.12 0.12 58 1012.0
20260508022800 47 205 0.0 0.0 0.00 0.12 0.12 60 1012.4
20260508022257 47 219 0.0 0.0 0.00 0.12 0.12 58 1012.0
20260508021754 47 216 0.0 0.0 0.00 0.12 0.12 57 1012.2
20260508021249 47 285 0.0 0.0 0.00 0.12 0.12 59 1012.1
20260508020746 47 220 0.0 0.0 0.00 0.12 0.12 59 1011.9
20260508020244 47 191 0.0 0.0 0.00 0.12 0.12 60 1011.9
20260508015741 47 222 0.0 0.0 0.00 0.12 0.12 59 1011.9
20260508015238 47 285 0.0 0.0 0.00 0.12 0.12 55 1012.0
20260508014735 46 187 0.0 0.0 0.00 0.12 0.12 59 1012.1
20260508014232 47 209 0.0 0.0 0.00 0.12 0.12 62 1011.8
20260508013727 46 156 0.0 0.0 0.00 0.12 0.12 60 1011.7
20260508013224 47 195 0.0 0.0 0.00 0.12 0.12 62 1011.8
20260508012722 46 126 0.0 0.0 0.00 0.12 0.12 62 1011.6
20260508012218 46 197 0.0 0.0 0.00 0.12 0.12 63 1011.6
20260508011717 46 193 0.0 0.0 0.00 0.12 0.12 63 1011.6
20260508011214 47 193 0.0 0.0 0.00 0.12 0.12 61 1011.8
20260508010710 47 179 0.0 0.0 0.00 0.12 0.12 59 1011.5
20260508010208 47 202 0.0 0.0 0.00 0.12 0.12 60 1011.6
20260508005705 47 197 0.0 0.0 0.00 0.12 0.12 59 1011.5
20260508005202 48 177 0.0 0.0 0.00 0.12 0.12 59 1011.3
20260508004657 48 174 0.0 0.0 0.00 0.12 0.12 59 1011.5
20260508004154 48 197 0.0 0.0 0.00 0.12 0.12 59 1011.1
20260508003651 48 192 0.0 0.0 0.00 0.12 0.12 58 1011.0
20260508003149 49 186 0.0 0.0 0.00 0.12 0.12 56 1010.9
20260508002645 49 173 0.0 0.0 0.00 0.12 0.12 55 1011.0
20260508002143 50 145 0.0 0.0 0.00 0.12 0.12 54 1010.9
20260508001638 50 216 0.0 0.0 0.00 0.12 0.12 54 1010.7
20260508001134 50 172 0.0 0.0 0.00 0.12 0.12 53 1010.4
20260508000630 51 192 0.0 0.0 0.00 0.12 0.12 55 1010.4
20260508000128 51 203 0.0 0.0 0.00 0.12 0.12 52 1010.6
20260507235624 52 155 0.0 0.0 0.00 0.12 0.12 50 1010.6
20260507235116 52 224 0.0 0.0 0.00 0.12 0.12 48 1010.9
20260507234612 53 234 0.0 0.0 0.00 0.12 0.12 49 1010.5
20260507234109 53 232 0.0 0.0 0.00 0.12 0.12 48 1010.6
20260507233606 53 241 0.0 0.0 0.00 0.12 0.12 50 1010.6
20260507233105 54 22 0.0 2.0 0.00 0.12 0.12 46 1010.5
20260507232600 54 219 0.0 0.0 0.00 0.12 0.12 49 1010.3
20260507232058 54 244 0.0 0.0 0.00 0.12 0.12 47 1010.2
20260507231554 55 224 0.0 0.0 0.00 0.12 0.12 45 1010.4
20260507231051 55 264 0.0 0.0 0.00 0.12 0.12 45 1010.2
20260507230548 55 238 0.0 0.0 0.00 0.12 0.12 44 1010.3
20260507230044 56 325 2.0 3.0 0.00 0.12 0.12 45 1010.2
20260507225539 56 319 0.0 1.0 0.00 0.12 0.12 45 1010.2
20260507225036 56 273 2.0 3.0 0.00 0.12 0.12 43 1010.1
20260507224532 55 242 0.0 0.0 0.00 0.12 0.12 46 1010.3
20260507224029 55 230 0.0 0.0 0.00 0.12 0.12 45 1010.2
20260507223525 55 186 0.0 1.0 0.00 0.12 0.12 44 1010.2
20260507223022 55 185 1.0 1.0 0.00 0.12 0.12 44 1010.4
20260507222519 55 238 0.0 1.0 0.00 0.12 0.12 44 1010.3
20260507222015 55 270 3.0 3.0 0.00 0.12 0.12 44 1010.4
20260507221512 56 188 2.0 3.0 0.00 0.12 0.12 42 1010.3
20260507221009 56 275 2.0 2.0 0.00 0.12 0.12 44 1010.2
20260507220506 57 275 2.0 2.0 0.00 0.12 0.12 40 1010.4
20260507220003 56 266 2.0 3.0 0.00 0.12 0.12 43 1010.3
20260507215459 56 246 2.0 2.0 0.00 0.12 0.12 46 1010.4
20260507214957 56 241 0.0 1.0 0.00 0.12 0.12 44 1010.3
20260507214454 56 229 2.0 2.0 0.00 0.12 0.12 42 1010.1
20260507213949 56 238 0.0 1.0 0.00 0.12 0.12 47 1010.2
20260507213447 56 183 3.0 3.0 0.00 0.12 0.12 42 1010.2
20260507212943 57 239 1.0 1.0 0.00 0.12 0.12 44 1010.2
20260507212439 57 229 0.0 1.0 0.00 0.12 0.12 43 1009.9
20260507211936 57 245 0.0 1.0 0.00 0.12 0.12 42 1009.7
20260507211432 57 235 3.0 3.0 0.00 0.12 0.12 44 1010.1
20260507210929 57 250 3.0 3.0 0.00 0.12 0.12 42 1009.9
20260507210421 58 268 2.0 2.0 0.00 0.12 0.12 42 1009.8
20260507205917 58 243 3.0 3.0 0.00 0.12 0.12 42 1009.8
20260507205415 59 248 2.0 3.0 0.00 0.12 0.12 45 1009.8
20260507204910 59 245 3.0 4.0 0.00 0.12 0.12 41 1009.9
20260507204407 58 308 3.0 4.0 0.00 0.12 0.12 41 1009.8
20260507203905 59 1 1.0 2.0 0.00 0.12 0.12 43 1009.9
20260507203403 59 153 3.0 4.0 0.00 0.12 0.12 40 1009.8
20260507202858 57 278 2.0 3.0 0.00 0.12 0.12 43 1009.7
20260507202355 57 247 2.0 2.0 0.00 0.12 0.12 46 1009.7
20260507201850 59 264 4.0 6.0 0.00 0.12 0.12 41 1009.7
20260507201346 58 250 3.0 3.0 0.00 0.12 0.12 40 1009.8
20260507200843 58 229 0.0 1.0 0.00 0.12 0.12 39 1009.7
20260507200339 59 237 3.0 4.0 0.00 0.12 0.12 42 1009.8
20260507195835 59 170 3.0 3.0 0.00 0.12 0.12 42 1009.8
20260507195332 58 207 4.0 7.0 0.00 0.12 0.12 41 1009.8
20260507194830 56 243 3.0 3.0 0.00 0.12 0.12 44 1009.6
20260507194326 57 269 2.0 2.0 0.00 0.12 0.12 44 1010.1
20260507193823 57 270 2.0 3.0 0.00 0.12 0.12 45 1010.1
20260507193320 56 240 1.0 1.0 0.00 0.12 0.12 45 1010.2
20260507192815 57 357 3.0 4.0 0.00 0.12 0.12 42 1010.2
20260507192312 59 245 0.0 0.0 0.00 0.12 0.12 44 1010.1
20260507191809 59 253 2.0 2.0 0.00 0.12 0.12 46 1010.2
20260507191305 58 219 2.0 2.0 0.00 0.12 0.12 43 1010.3
20260507190802 59 186 2.0 3.0 0.00 0.12 0.12 40 1010.4
20260507190301 58 78 4.0 6.0 0.00 0.12 0.12 42 1010.6
20260507185759 56 244 1.0 2.0 0.00 0.12 0.12 42 1010.5
20260507185255 57 249 1.0 1.0 0.00 0.12 0.12 46 1010.6
20260507184753 57 254 2.0 2.0 0.00 0.12 0.12 48 1010.6
20260507184250 58 251 2.0 2.0 0.00 0.12 0.12 41 1010.6
20260507183747 58 247 3.0 3.0 0.00 0.12 0.12 45 1010.7
20260507183243 59 231 2.0 2.0 0.00 0.12 0.12 47 1010.5
20260507182741 57 256 3.0 3.0 0.00 0.12 0.12 44 1010.6
20260507182236 56 313 2.0 2.0 0.00 0.12 0.12 42 1010.9
20260507181734 56 274 4.0 4.0 0.00 0.12 0.12 44 1010.7
20260507181230 57 261 3.0 3.0 0.00 0.12 0.12 44 1011.2
20260507180726 57 271 3.0 6.0 0.00 0.12 0.12 48 1011.0
20260507180223 57 210 3.0 4.0 0.00 0.12 0.12 43 1011.3
20260507175719 57 269 4.0 4.0 0.00 0.12 0.12 45 1011.3
20260507175216 56 267 4.0 4.0 0.00 0.12 0.12 45 1011.1
20260507174714 56 238 2.0 2.0 0.00 0.12 0.12 44 1011.2
20260507174211 56 283 2.0 4.0 0.00 0.12 0.12 45 1011.3
20260507173708 56 264 3.0 3.0 0.00 0.12 0.12 46 1011.5
20260507173204 56 237 1.0 2.0 0.00 0.12 0.12 48 1011.4
20260507172701 55 228 2.0 2.0 0.00 0.12 0.12 44 1011.6
20260507172158 55 262 4.0 7.0 0.00 0.12 0.12 44 1011.8
20260507171653 56 246 2.0 3.0 0.00 0.12 0.12 44 1011.8
20260507171150 56 240 1.0 2.0 0.00 0.12 0.12 47 1011.8
20260507170647 56 268 1.0 2.0 0.00 0.12 0.12 49 1011.8
20260507170144 56 287 3.0 6.0 0.00 0.12 0.12 47 1012.0
20260507165640 56 14 2.0 2.0 0.00 0.12 0.12 47 1012.0
20260507165136 55 249 1.0 1.0 0.00 0.12 0.12 47 1012.0
20260507164632 54 255 0.0 1.0 0.00 0.12 0.12 48 1011.9
20260507164130 54 241 4.0 4.0 0.00 0.12 0.12 47 1011.8
20260507163627 54 241 2.0 2.0 0.00 0.12 0.12 44 1012.2
20260507163125 54 228 1.0 1.0 0.00 0.12 0.12 47 1011.9
20260507162620 55 267 1.0 2.0 0.00 0.12 0.12 47 1012.2
20260507162117 54 0 2.0 2.0 0.00 0.12 0.12 47 1012.2
20260507161613 54 246 1.0 2.0 0.00 0.12 0.12 49 1012.3
20260507161110 53 247 3.0 4.0 0.00 0.12 0.12 46 1012.2
20260507160606 53 208 2.0 2.0 0.00 0.12 0.12 46 1012.3
20260507155558 53 211 1.0 1.0 0.00 0.12 0.12 50 1012.6
20260507155055 54 241 3.0 3.0 0.00 0.12 0.12 48 1012.8
20260507154552 53 47 0.0 1.0 0.00 0.12 0.12 48 1012.8
20260507154049 52 249 2.0 3.0 0.00 0.12 0.12 48 1012.7
20260507153546 53 272 2.0 3.0 0.00 0.12 0.12 49 1012.9
20260507153042 54 248 1.0 1.0 0.00 0.12 0.12 52 1012.8
20260507152538 52 97 2.0 3.0 0.00 0.12 0.12 49 1012.8
20260507152034 52 246 1.0 1.0 0.00 0.12 0.12 51 1013.0
20260507151530 52 256 2.0 3.0 0.00 0.12 0.12 51 1012.8
20260507151022 52 208 0.0 0.0 0.00 0.12 0.12 52 1012.9
20260507150519 52 237 2.0 3.0 0.00 0.12 0.12 51 1013.1
20260507150016 51 249 1.0 2.0 0.00 0.12 0.12 55 1012.9
20260507145510 51 238 3.0 3.0 0.00 0.12 0.12 53 1013.0
20260507145009 51 12 3.0 4.0 0.00 0.12 0.12 52 1013.0
20260507144505 51 247 2.0 2.0 0.00 0.12 0.12 56 1012.9
20260507144003 51 278 3.0 6.0 0.00 0.12 0.12 60 1013.0
20260507143459 50 273 4.0 4.0 0.00 0.12 0.12 57 1012.9
20260507142956 50 257 3.0 4.0 0.00 0.12 0.12 55 1013.0
20260507142452 50 274 0.0 0.0 0.00 0.12 0.12 63 1013.0
20260507141949 50 264 2.0 2.0 0.00 0.12 0.12 61 1012.9
20260507141445 50 315 4.0 6.0 0.00 0.12 0.12 60 1013.2
20260507140942 50 241 4.0 4.0 0.00 0.12 0.12 61 1013.1
20260507140438 51 243 1.0 1.0 0.00 0.12 0.12 62 1013.2
20260507135936 50 11 5.0 7.0 0.00 0.12 0.12 63 1013.1
20260507135433 50 262 2.0 3.0 0.00 0.12 0.12 67 1012.9
20260507134930 50 230 0.0 1.0 0.00 0.12 0.12 71 1013.1
20260507134426 49 310 1.0 2.0 0.00 0.12 0.12 70 1013.2
20260507133922 49 271 2.0 3.0 0.00 0.12 0.12 72 1013.0
20260507133418 48 261 1.0 2.0 0.00 0.12 0.12 77 1012.9
20260507132912 48 243 2.0 2.0 0.00 0.12 0.12 79 1013.1
20260507132407 49 231 2.0 2.0 0.00 0.12 0.12 83 1013.0
20260507131906 48 246 1.0 2.0 0.00 0.12 0.12 83 1012.9
20260507131401 48 205 1.0 2.0 0.00 0.12 0.12 84 1013.1
20260507130858 48 284 1.0 2.0 0.00 0.12 0.12 86 1013.1
20260507130355 47 280 0.0 0.0 0.00 0.12 0.12 87 1012.7
20260507125854 47 272 3.0 4.0 0.00 0.12 0.12 86 1012.7
20260507125351 47 226 2.0 3.0 0.00 0.12 0.12 88 1012.7
20260507124849 47 182 2.0 3.0 0.00 0.12 0.12 88 1012.8
20260507124344 46 231 0.0 1.0 0.00 0.12 0.12 91 1012.8
20260507123843 46 250 2.0 2.0 0.00 0.12 0.12 91 1012.4
20260507123340 46 233 3.0 3.0 0.00 0.12 0.12 94 1012.6
20260507122836 46 227 0.0 0.0 0.00 0.12 0.12 95 1012.7
20260507122331 45 151 2.0 3.0 0.00 0.12 0.12 95 1012.8
20260507121828 45 275 1.0 1.0 0.00 0.12 0.12 96 1012.8
20260507121324 45 322 2.0 3.0 0.00 0.12 0.12 97 1012.8
20260507120820 45 326 1.0 1.0 0.00 0.12 0.12 98 1012.9
20260507120317 44 5 0.0 1.0 0.00 0.12 0.12 98 1012.9
20260507115813 45 239 0.0 0.0 0.00 0.12 0.12 99 1012.7
20260507115309 45 157 1.0 2.0 0.00 0.12 0.12 99 1012.5
20260507114805 44 228 0.0 1.0 0.00 0.12 0.12 99 1012.6
20260507114302 44 205 0.0 0.0 0.00 0.12 0.12 99 1012.5
20260507113759 44 259 3.0 4.0 0.00 0.12 0.12 99 1012.5
20260507113256 44 245 0.0 0.0 0.00 0.12 0.12 99 1012.5
20260507112754 44 222 0.0 0.0 0.00 0.12 0.12 99 1012.5
20260507112251 44 223 0.0 1.0 0.00 0.12 0.12 99 1012.4
20260507111749 44 241 0.0 0.0 0.00 0.12 0.12 99 1012.5
20260507111245 44 243 0.0 0.0 0.00 0.12 0.12 99 1012.5
20260507110741 44 260 0.0 0.0 0.00 0.12 0.12 99 1012.4
20260507110238 44 266 2.0 2.0 0.00 0.12 0.12 99 1012.4
20260507105734 44 215 0.0 0.0 0.00 0.12 0.12 99 1012.2
20260507105230 44 229 0.0 0.0 0.00 0.12 0.12 99 1012.1
20260507104728 44 224 0.0 0.0 0.00 0.12 0.12 99 1012.0
20260507104225 44 232 0.0 0.0 0.00 0.12 0.12 99 1012.0
20260507103720 44 219 0.0 0.0 0.00 0.12 0.12 99 1011.8
20260507103217 44 197 0.0 0.0 0.00 0.12 0.12 99 1011.8
20260507102713 44 306 1.0 1.0 0.00 0.12 0.12 99 1011.9
20260507102210 44 229 0.0 0.0 0.00 0.12 0.12 99 1011.7
20260507101706 44 240 0.0 0.0 0.00 0.12 0.12 99 1011.7
20260507101201 44 228 0.0 0.0 0.00 0.12 0.12 99 1011.7
20260507100659 44 244 1.0 1.0 0.00 0.12 0.12 99 1011.4
20260507100157 44 236 0.0 0.0 0.00 0.12 0.12 99 1011.6
20260507095655 45 228 0.0 0.0 0.00 0.12 0.12 99 1011.4
20260507095151 45 221 0.0 0.0 0.00 0.12 0.12 99 1011.3
20260507094648 45 227 0.0 0.0 0.00 0.12 0.12 99 1011.3
20260507094144 45 248 0.0 1.0 0.00 0.12 0.12 99 1011.3
20260507093642 45 238 0.0 1.0 0.00 0.12 0.12 99 1011.3
20260507093141 45 230 0.0 0.0 0.00 0.12 0.12 99 1011.4
20260507092637 45 253 0.0 0.0 0.00 0.12 0.12 99 1011.3
20260507092133 45 246 1.0 1.0 0.00 0.12 0.12 99 1011.5
20260507091630 45 265 0.0 1.0 0.00 0.12 0.12 99 1011.3
20260507091126 46 232 0.0 0.0 0.00 0.12 0.12 99 1011.1
20260507090622 46 274 1.0 1.0 0.00 0.12 0.12 99 1011.4
20260507090120 46 268 0.0 0.0 0.00 0.12 0.12 99 1011.3
20260507085616 46 247 1.0 2.0 0.00 0.12 0.12 99 1011.1
20260507085113 46 263 1.0 1.0 0.00 0.12 0.12 99 1011.3
20260507084610 46 239 0.0 0.0 0.00 0.12 0.12 99 1011.5
20260507084107 46 221 1.0 1.0 0.00 0.12 0.12 99 1011.2
20260507083603 46 245 0.0 0.0 0.00 0.12 0.12 99 1011.1
20260507083100 46 253 0.0 0.0 0.07 0.12 0.12 99 1011.4
20260507082556 46 217 0.0 0.0 0.07 0.12 0.12 99 1011.2
20260507082053 46 254 1.0 1.0 0.00 0.11 0.11 99 1011.2
20260507081549 46 245 0.0 0.0 0.00 0.11 0.11 99 1011.3
20260507081046 46 244 0.0 0.0 0.05 0.11 0.11 99 1011.7
20260507080541 46 256 1.0 1.0 0.05 0.11 0.11 99 1011.2
20260507080033 46 237 0.0 0.0 0.07 0.10 0.10 99 1011.6
20260507075528 46 214 0.0 0.0 0.07 0.10 0.10 99 1011.9